Weather History for KDRO - December, 2013

Change the Weather History Date:

Friday, December 6, 2013

  Actual Average Record
Temperature  
Mean Temperature 18 °F 28 °F  
Max Temperature 25 °F 41 °F 62 °F (2006)
Min Temperature 10 °F 16 °F 1 °F (1972)
Degree Days  
Heating Degree Days 47 36  
Month to date heating degree days 239 214  
Since 1 July heating degree days 1922 1887  
Cooling Degree Days 0 0  
Month to date cooling degree days 0 0  
Year to date cooling degree days 388 243  
Moisture  
Dew Point 8 °F    
Average Humidity 69    
Maximum Humidity 92    
Minimum Humidity 46    
Precipitation  
Precipitation 0.01 in 0.03 in 1.00 in (1986)
Month to date precipitation 0.01 0.21  
Year to date precipitation 15.59 15.11  
Sea Level Pressure  
Sea Level Pressure 30.08 in    
Wind  
Wind Speed 2 mph (West)    
Max Wind Speed 13 mph    
Max Gust Speed 15 mph    
Visibility 7 miles    
Events Snow    
T = Trace of Precipitation, MM = Missing Value Source: NWS Daily Summary

Daily Weather History Graph

Daily Weather History Graph

Search for Another Location

Airport or City:

Trip Planner

Search our weather history database for the weather conditions in past years. The results will help you decide how hot, cold, wet, or windy it might be!

Date:

Astronomy

Dec. 06, 2013 Rise Set
Actual Time 7:10 AM MST 4:53 PM MST
Civil Twilight 6:41 AM MST 5:22 PM MST
Nautical Twilight 6:09 AM MST 5:54 PM MST
Astronomical Twilight 5:37 AM MST 6:26 PM MST
Moon 10:21 AM MST (12/6) 9:25 PM MST (12/6)
Length of Visible Light 10h 40m
Length of Day
9h 42m
Waxing Crescent, 20% of the Moon is Illuminated
Dec 6
Waxing Crescent
Dec 9
First Quarter
Dec 17
Full
Dec 25
Last Quarter
Jan 1
New

Hourly Weather History & Observations

Time (MST) Temp. Windchill Dew Point Humidity Pressure Visibility Wind Dir Wind Speed Gust Speed Precip Events Conditions
12:53 AM 12.0 °F - 7.0 °F 80% 30.07 in 10.0 mi Calm Calm - N/A   Overcast
1:53 AM 12.0 °F 5.9 °F 7.0 °F 80% 30.08 in 10.0 mi North 3.5 mph - N/A   Overcast
2:53 AM 12.9 °F - 8.1 °F 81% 30.09 in 10.0 mi Calm Calm - N/A   Overcast
3:53 AM 12.9 °F - 9.0 °F 84% 30.10 in 4.0 mi Calm Calm - 0.00 in Snow Light Snow
4:02 AM 12.2 °F - 8.6 °F 85% 29.92 in 2.5 mi Calm Calm - 0.00 in Snow Light Snow
4:08 AM 12.2 °F - 10.4 °F 92% 29.92 in 1.2 mi Calm Calm - 0.00 in Snow Light Snow
4:16 AM 12.2 °F - 10.4 °F 92% 29.92 in 2.0 mi Calm Calm - 0.00 in Snow Light Snow
4:24 AM 12.2 °F - 10.4 °F 92% 29.92 in 1.5 mi Calm Calm - 0.00 in Snow Light Snow
4:35 AM 12.2 °F - 8.6 °F 85% 29.92 in 2.5 mi Calm Calm - 0.00 in Snow Light Snow
4:53 AM 14.0 °F - 10.0 °F 84% 30.09 in 1.5 mi Calm Calm - 0.00 in Snow Light Snow
5:00 AM 12.2 °F - 10.4 °F 92% 29.92 in 1.2 mi Calm Calm - 0.00 in Snow Light Snow
5:03 AM 12.2 °F - 10.4 °F 92% 29.92 in 2.0 mi Calm Calm - 0.00 in Snow Light Snow
5:12 AM 12.2 °F - 10.4 °F 92% 29.92 in 4.0 mi Calm Calm - 0.00 in Snow Light Snow
5:24 AM 12.2 °F - 10.4 °F 92% 29.93 in 4.0 mi Calm Calm - 0.00 in Snow Light Snow
5:51 AM 12.2 °F - 10.4 °F 92% 29.94 in 2.5 mi Calm Calm - 0.00 in Snow Light Snow
5:53 AM 12.9 °F - 10.0 °F 88% 30.12 in 1.8 mi Calm Calm - 0.00 in Snow Light Snow
6:08 AM 12.2 °F - 10.4 °F 92% 29.95 in 2.5 mi Calm Calm - 0.00 in Snow Light Snow
6:15 AM 12.2 °F - 10.4 °F 92% 29.94 in 4.0 mi Calm Calm - 0.00 in Snow Light Snow
6:35 AM 12.2 °F - 10.4 °F 92% 29.95 in 2.0 mi Calm Calm - 0.01 in Snow Light Snow
6:46 AM 12.2 °F - 10.4 °F 92% 29.96 in 6.0 mi Calm Calm - 0.01 in Snow Light Snow
6:53 AM 12.9 °F - 10.9 °F 92% 30.15 in 4.0 mi Calm Calm - 0.01 in Snow Light Snow
7:01 AM 12.2 °F - 10.4 °F 92% 29.96 in 2.5 mi Calm Calm - 0.00 in Snow Light Snow
7:04 AM 12.2 °F - 10.4 °F 92% 29.96 in 4.0 mi Calm Calm - 0.00 in Snow Light Snow
7:11 AM 12.2 °F - 8.6 °F 85% 29.97 in 9.0 mi Calm Calm - 0.00 in   Overcast
7:28 AM 12.2 °F 6.1 °F 8.6 °F 85% 29.97 in 10.0 mi North 3.5 mph - 0.00 in   Mostly Cloudy
7:53 AM 12.9 °F 6.9 °F 7.0 °F 77% 30.19 in 10.0 mi North 3.5 mph - 0.00 in   Overcast
8:10 AM 12.2 °F - 6.8 °F 79% 29.98 in 10.0 mi Calm Calm - N/A   Overcast
8:17 AM 12.2 °F - 6.8 °F 79% 29.99 in 10.0 mi Calm Calm - N/A   Overcast
8:53 AM 15.1 °F - 10.0 °F 80% 30.20 in 10.0 mi Calm Calm - N/A   Overcast
9:53 AM 18.0 °F - 10.0 °F 71% 30.23 in 10.0 mi Calm Calm - N/A   Partly Cloudy
10:53 AM 19.9 °F 9.3 °F 7.0 °F 57% 30.23 in 10.0 mi WSW 9.2 mph - N/A   Mostly Cloudy
11:53 AM 19.9 °F 14.9 °F 8.1 °F 60% 30.23 in 10.0 mi SSW 3.5 mph - N/A   Mostly Cloudy
12:53 PM 21.9 °F 14.5 °F 8.1 °F 55% 30.22 in 10.0 mi SW 5.8 mph - N/A   Partly Cloudy
1:53 PM 23.0 °F 17.0 °F 8.1 °F 53% 30.19 in 10.0 mi WSW 4.6 mph - N/A   Partly Cloudy
2:53 PM 24.1 °F 16.0 °F 7.0 °F 48% 30.19 in 10.0 mi SW 6.9 mph - N/A   Partly Cloudy
3:53 PM 24.1 °F 16.0 °F 6.1 °F 46% 30.20 in 10.0 mi SW 6.9 mph - N/A   Clear
4:53 PM 21.9 °F 15.7 °F 5.0 °F 48% 30.22 in 10.0 mi SW 4.6 mph - N/A   Clear
5:53 PM 19.0 °F - 5.0 °F 54% 30.26 in 10.0 mi Calm Calm - N/A   Clear
6:53 PM 18.0 °F - 5.0 °F 57% 30.27 in 10.0 mi Calm Calm - N/A   Clear
7:53 PM 15.1 °F 4.2 °F 7.0 °F 70% 30.30 in 10.0 mi North 8.1 mph - N/A   Clear
8:53 PM 15.1 °F - 6.1 °F 68% 30.29 in 10.0 mi Calm Calm - N/A   Clear
9:53 PM 14.0 °F - 7.0 °F 74% 30.28 in 10.0 mi Calm Calm - N/A   Clear
10:53 PM 12.0 °F - 6.1 °F 77% 30.28 in 10.0 mi Calm Calm - N/A   Clear
11:53 PM 12.0 °F - 5.0 °F 73% 30.27 in 10.0 mi Calm Calm - N/A   Clear